Other Public Products
Issued by NWS Grand Forks, ND

Home | Current Version | Previous Version | Text Only | Print | Product List | Glossary On
Versions: 1 2 3 4 5 6 7 8 9 10 11 12 13 14 15 16 17 18 19 20 21 22 23 24 25 26 27 28 29 30 31 32 33 34 35 36 37 38 39 40 41 42 43 44 45 46 47 48 49 50
000
FPUS83 KFGF 291710
OPUFGF
PRAIRIE TO PINES WEATHER ROUNDUP
NATIONAL WEATHER SERVICE EASTERN NORTH DAKOTA/GRAND FORKS ND
1200 PM CDT THU JUN 29 2017

 **SATELLITE DATA USED TO AUGMENT SKY COVER AT AUTOMATED STATIONS**
 *****  WEATHER ACROSS EASTERN NORTH DAKOTA  *****

CITY           SKY/WX    TMP DP  RH WIND       PRES   REMARKS
GRAND FORKS    CLOUDY    70  63  78 N3        29.81R
GRAND FORKS AF FAIR      69  63  82 CALM      29.82R
GRAND CITY NWS NOT AVBL
BUXTON           N/A     70  64  82 CALM        N/A
DEVILS LAKE    PTSUNNY   71  63  75 SE5       29.84R
FARGO          CLOUDY    68  61  78 NW6       29.82R
WAHPETON ARPT  CLOUDY    64  55  72 N7        29.83R
$$

 *****  WEATHER ACROSS CENTRAL AND WESTERN NORTH DAKOTA  *****

CITY           SKY/WX    TMP DP  RH WIND       PRES   REMARKS
JAMESTOWN      FAIR      70  60  70 CALM      29.84R
BISMARCK       LGT RAIN  70  54  56 S7        29.88R
MINOT          CLOUDY    68  53  58 NW21G35   29.87R
MINOT AFB      PTSUNNY   64  54  69 NW23      29.87R
GARRISON         N/A     70  51  51 S8        29.84R
WILLISTON      FAIR      78  49  35 N7        29.86R
DICKINSON      PTSUNNY   70  45  40 SW8       29.85R
HETTINGER      FAIR      65  51  60 S15       29.93R
$$

 *****  OTHER OBSERVATIONS NORTHEAST NORTH DAKOTA  *****

CITY           SKY/WX    TMP DP  RH WIND       PRES   REMARKS
WALHALLA       NOT AVBL
LANGDON        PTSUNNY   73  63  68 CALM      29.84S
CAVALIER       PTSUNNY   70 -38   1 S3        29.81R
GRAFTON        FAIR      68  66  94 CALM      29.83R
CANDO          NOT AVBL
FORT TOTTEN      N/A     74  64  70 CALM      29.95S
ROLLA            N/A     72  57  60 NW8       29.85R
RUGBY          NOT AVBL
 ***** THE ABOVE OBSERVATIONS ARE NON NWS ARE NOT QUALITY
        CONTROLLED AND MAY MIS-REPORT RAIN FOR SNOW...
$$

 *****  OTHER OBSERVATIONS SOUTHEAST NORTH DAKOTA *****

CITY           SKY/WX    TMP DP  RH WIND       PRES   REMARKS
COOPERSTOWN    CLOUDY    64  63  94 CALM      29.86R
VALLEY CITY    FAIR      64  64 100 NW5       29.86R
OAKES          NOT AVBL
GWINNER        CLOUDY    68  61  77 CALM      29.84R
SHEYENNE NWR     N/A     67  61  80 NW3       29.95S
BUFFALO          N/A     67  57  68 S3          N/A
WYNDMERE       NOT AVBL
 ***** THE ABOVE OBSERVATIONS ARE NON NWS ARE NOT QUALITY
       CONTROLLED AND MAY MIS-REPORT RAIN FOR SNOW...
$$

  *****  WEATHER ACROSS NORTHERN MINNESOTA  *****

CITY           SKY/WX    TMP DP  RH WIND       PRES   REMARKS
FLAG ISLAND    FAIR      68  57  68 N6        29.78S
WARROAD        FAIR      70  61  73 NE3       29.79S
ROSEAU         FAIR      72  63  73 NW5       29.79R
HALLOCK        FAIR      70  63  78 CALM      29.80R
THF RVR FALLS  FAIR      68  61  78 NW6       29.82R
HALSTAD        NOT AVBL
FOSSTON        FAIR      68  63  83 NW3       29.82R
BAUDETTE       CLOUDY    70  62  76 NW9       29.76F
WASKISH        PTSUNNY   72  61  68 NW7       29.77R
CROOKSTON      PTSUNNY   66  63  88 NW5       29.82R
$$
  *****  WEATHER ACROSS CENTRAL AND WEST MINNESOTA  *****

CITY           SKY/WX    TMP DP  RH WIND       PRES   REMARKS
BEMIDJI        FAIR      71  59  66 NW10G18   29.78R
PARK RAPIDS    FAIR      71  56  58 NW9       29.79R
WADENA         FAIR      70  59  68 NW8       29.79R
DETROIT LAKES  PTSUNNY   68  59  73 NW9       29.83R
MOORHEAD       PTSUNNY   66  61  82 NW6       29.83R
FERGUS FALLS   CLOUDY    66  59  77 NW7       29.80S
ELBOW LAKE     CLOUDY    65  60  82 NW6       29.83R
MORRIS MN      FAIR      68  59  73 NW9       29.80F
STAPLES        PTSUNNY   72  57  60 W10       29.79R
WHEATON        CLOUDY    64  57  77 NW5       29.84S
$$
  *****  WEATHER ELSEWHERE ACROSS MINNESOTA  *****

CITY           SKY/WX    TMP DP  RH WIND       PRES   REMARKS
DULUTH         LGT RAIN  62  60  93 NW9       29.72R FOG
INTRNTL FALLS  CLOUDY    63  57  81 N8        29.75S
ELY            RAIN      59  57  94 CALM      29.72R
CLOQUET        CLOUDY    63  57  82 NW9       29.73S
BRAINERD       CLOUDY    68  59  73 N6        29.76S
HIBBING        CLOUDY    60  59  96 NW13      29.74R
ALEXANDRIA     CLOUDY    68  60  75 W7        29.82S
SAINT CLOUD    CLOUDY    68  59  73 NW8       29.78R
MINNEAPOLIS    CLOUDY    70  59  68 NW8       29.76F
$$

  *****  WEATHER ACROSS SOUTH DAKOTA  *****

CITY           SKY/WX    TMP DP  RH WIND       PRES   REMARKS
SIOUX FALLS    PTSUNNY   76  60  57 N10       29.79S
BROOKINGS      FAIR      72  57  59 VRB5      29.82F
WATERTOWN      PTSUNNY   70  60  70 NW3       29.83S
HURON          CLOUDY    70  59  68 N7        29.81R
SISSETON         N/A     69  61  75 VRB5      29.82R
ABERDEEN       CLOUDY    64  58  80 W5        29.84R
MITCHELL       CLOUDY    78  53  41 E9        29.79R
PIERRE         CLOUDY    67  55  65 N15       29.82F
MOBRIDGE       CLOUDY    69  52  54 NW5       29.85R
RAPID CITY     LGT RAIN  59  53  80 N8        29.95R
$$

  *****  SOME WEATHER IN NEARBY STATES *****

CITY           SKY/WX    TMP DP  RH WIND       PRES   REMARKS
GLASGOW MT     FAIR      72  48  42 W16G28    29.94R
GREAT FALLS MT CLOUDY    56  46  69 W10       30.16R
CHEYENNE WY    FAIR      71  38  29 E9        30.06S
SCOTTSBLUFF NE FAIR      75  47  36 N14       29.98S
OMAHA NE       PTSUNNY   76  63  64 S12       29.80R
DES MOINES IA  CLOUDY    77  67  71 SW12      29.80S
DAVENPORT IA   NOT AVBL
CHICAGO IL     PTSUNNY   79  66  64 W16       29.82R
EAU CLAIRE WI  CLOUDY    68  60  75 W13       29.73S
LA CROSSE WI   FAIR      80  64  58 W6        29.75R
$$

  *****  SOME NATIONAL WEATHER *****

CITY           SKY/WX    TMP DP  RH WIND       PRES   REMARKS
LA GUARDIA NY  PTSUNNY   82  62  50 S17       30.09F
RALEIGH NC     FAIR      85  63  47 SW13      30.21F
ATLANTA GA     PTSUNNY   82  70  66 S10       30.16F
NEW ORLEANS LA LGT RAIN  80  77  90 S9        30.01S
OKLAHOMA CITY  FAIR      88  70  55 S23G31    29.80F HX  93
ALBUQUERQUE NM FAIR      85  28  12 NE7       30.09F
SALT LAKE CITY FAIR      80  23  12 N10       30.05R
LOS ANGELES CA PTSUNNY   70  57  63 CALM      29.95S
BOISE ID       FAIR      70  37  29 NW9       30.06R
SEATTLE WA     FAIR      62  51  67 SW6       30.17S
$$

*** WEATHER ACROSS MANITOBA...SASKATCHEWAN AND ONTARIO ***
                ***ONTARIO***

CITY           SKY/WX    TMP DP  RH WIND       PRES   REMARKS
GERALDTON      CLOUDY    68  54  60 NE14      29.75R
THUNDER BAY    LGT RAIN  61  61 100 E9        29.66S
SIOUX LOOKOUT  MOSUNNY   66  54  63 VRB3      29.79R
TORONTO        CLOUDY    68  63  83 SE6       29.86F
BIG TROUT LK   NOT AVBL
PICKLE LAKE    CLOUDY    63  52  67 E12       29.85R
DRYDEN         CLOUDY    64  55  72 N6        29.79S
KENORA         NOT AVBL
$$
                *** MANITOBA***

CITY           SKY/WX    TMP DP  RH WIND       PRES   REMARKS
BRANDON        PTSUNNY   70  59  68 W5        29.83R
DAUPHIN        CLOUDY    70  59  68 CALM      29.81S
ISLAND LAKE    CLOUDY    61  57  88 E5        29.82R
PILOT MOUND      N/A     72  55  56 SW1         N/A
THE PAS        PTSUNNY   55  46  71 NW10      29.84R
THOMPSON       LGT RAIN  50  48  93 NE8       29.84R FOG
WINNIPEG       PTSUNNY   72  61  68 VRB2      29.81R
LYNN LAKE      LGT RAIN  46  46 100 NE9G20    29.89R FOG
CHURCHILL      PTSUNNY   50  43  76 E13       30.10S
GILLAM         CLOUDY    54  43  66 E9G17     29.93R
$$
                ***SASKATCHEWAN***

CITY           SKY/WX    TMP DP  RH WIND       PRES   REMARKS
ESTEVAN        MOSUNNY   72  52  49 W7        29.85R
KINDERSLEY     PTSUNNY   52  43  71 N10       30.06R
LLOYDMINSTER   PTSUNNY   59  45  58 NW7       30.06R
PRINCE ALBERT  PTSUNNY   55  45  67 N14G23    29.97S
REGINA         PTSUNNY   64  54  68 NW20      29.91R
YORKTON        PTSUNNY   66  54  63 NW13G20   29.85S


USA.gov is the U.S. government's official web portal to all federal, state and local government web resources and services.